TimeMDT,TemperatureF,Dew PointF,Humidity,Sea Level PressureIn,VisibilityMPH,Wind Direction,Wind SpeedMPH,Gust SpeedMPH,PrecipitationIn,Events,Conditions,WindDirDegrees,DateUTC
12:53 AM,64.9,43.0,45,29.97,10.0,ENE,4.6,-,N/A,,Clear,70,2013-08-18 06:53:00
1:53 AM,64.0,39.9,41,29.96,10.0,Calm,Calm,-,N/A,,Clear,0,2013-08-18 07:53:00
2:53 AM,62.1,43.0,50,29.97,10.0,Calm,Calm,-,N/A,,Clear,0,2013-08-18 08:53:00
3:53 AM,60.1,39.9,47,29.98,10.0,Calm,Calm,-,N/A,,Clear,0,2013-08-18 09:53:00
4:53 AM,60.1,43.0,53,30.00,10.0,Calm,Calm,-,N/A,,Partly Cloudy,0,2013-08-18 10:53:00
5:53 AM,62.1,42.1,48,30.01,10.0,Calm,Calm,-,0.00,,Clear,0,2013-08-18 11:53:00
6:53 AM,59.0,44.1,58,30.05,10.0,Calm,Calm,-,N/A,,Clear,0,2013-08-18 12:53:00
7:53 AM,61.0,46.9,60,30.06,10.0,Calm,Calm,-,N/A,,Clear,0,2013-08-18 13:53:00
8:53 AM,68.0,44.1,42,30.06,10.0,Calm,Calm,-,N/A,,Clear,0,2013-08-18 14:53:00
9:53 AM,72.0,45.0,38,30.05,10.0,Calm,Calm,-,N/A,,Clear,0,2013-08-18 15:53:00
10:53 AM,78.1,42.1,28,30.04,10.0,Variable,3.5,-,N/A,,Clear,0,2013-08-18 16:53:00
11:53 AM,82.9,43.0,24,30.01,10.0,Variable,5.8,-,N/A,,Clear,0,2013-08-18 17:53:00
12:53 PM,86.0,43.0,22,29.96,10.0,Calm,Calm,-,N/A,,Clear,0,2013-08-18 18:53:00
1:53 PM,90.0,41.0,18,29.93,10.0,WNW,10.4,-,N/A,,Clear,300,2013-08-18 19:53:00
2:53 PM,91.9,37.0,15,29.91,10.0,WNW,13.8,25.3,N/A,,Clear,290,2013-08-18 20:53:00
3:53 PM,88.0,42.1,20,29.92,10.0,NW,20.7,29.9,N/A,,Scattered Clouds,320,2013-08-18 21:53:00
4:49 PM,91.4,41.0,17,30.12,10.0,North,12.7,-,N/A,Thunderstorm,Clear,360,2013-08-18 22:49:00
4:53 PM,91.0,41.0,17,29.89,10.0,North,10.4,-,N/A,Thunderstorm,Clear,360,2013-08-18 22:53:00
5:04 PM,91.4,41.0,17,30.12,10.0,North,12.7,-,N/A,,Clear,10,2013-08-18 23:04:00
5:53 PM,91.9,42.1,18,29.88,10.0,North,6.9,-,N/A,,Clear,360,2013-08-18 23:53:00
6:11 PM,89.6,41.0,18,30.12,10.0,WSW,8.1,16.1,N/A,Thunderstorm,Clear,240,2013-08-19 00:11:00
6:26 PM,87.8,41.0,19,30.12,10.0,Calm,Calm,-,N/A,,Clear,0,2013-08-19 00:26:00
6:53 PM,82.9,45.0,26,29.92,10.0,SSE,17.3,24.2,N/A,,Clear,160,2013-08-19 00:53:00
7:21 PM,80.6,46.4,30,30.15,10.0,SSE,25.3,36.8,N/A,,Partly Cloudy,160,2013-08-19 01:21:00
7:53 PM,78.1,46.9,33,29.96,10.0,SE,18.4,26.5,N/A,,Mostly Cloudy,130,2013-08-19 01:53:00
8:53 PM,75.0,46.0,36,29.97,10.0,ESE,12.7,-,N/A,,Clear,110,2013-08-19 02:53:00
9:53 PM,73.9,46.0,37,30.00,10.0,ENE,5.8,-,N/A,,Clear,70,2013-08-19 03:53:00
10:53 PM,70.0,46.0,42,30.00,10.0,Calm,Calm,-,N/A,,Clear,0,2013-08-19 04:53:00
11:53 PM,66.0,46.0,48,30.01,10.0,SE,4.6,-,N/A,,Clear,140,2013-08-19 05:53:00